{"data":{"norad_id":67100,"intl_designator":"2025-298AB","name":"STARLINK-36215","alt_names":[],"object_type":"PAYLOAD","status":"ACTIVE","operator":null,"country":"US","launch_date":"2025-12-14","launch_site_code":"AFWTR","launch_vehicle":null,"mission":null,"orbit_class":"UNKNOWN","rcs_meters":null,"size_class":null,"mass_kg":null,"dimensions":null,"purposes":["comms"],"wikipedia_slug":null,"has_3d_model":false,"image_url":null,"decayed_at":null,"tle_current":{"epoch":"2026-05-25T02:31:11.040096Z","epoch_age_seconds":59812,"freshness":"FRESH","line1":"1 67100U 25298AB  26145.10498889  .00003588  00000+0  30822-3 0  9996","line2":"2 67100  70.0011 181.7784 0003546 266.6411  93.4343 14.98345955 24662","mean_motion":14.98345955,"eccentricity":0.0003546,"inclination_deg":70.0011,"raan_deg":181.7784,"arg_perigee_deg":266.6411,"mean_anomaly_deg":93.4343,"bstar":0.00030822,"rev_number":2466,"period_min":96.105975739094,"perigee_km":569.54203095738,"apogee_km":574.47107276436,"semimajor_km":6950.1435518609,"source":"CELESTRAK","updated_at":"2026-05-25T13:38:21.471840Z"}}}